Погода в Кулевке

Россия / Курская область     51°33′43″N   38°11′17″E
темп.,
°C
ветер,
м/с
пор.,
м/с
влажн.,
%
обл.,
%
осадки,
мм/ч
давл.,
гПа
погр.,
м
28 сентября, вт
вт2800:00+9с4986100 0.3 1020439
03:00+8с4890100 0.4 1021392
06:00+8с489298 0.0 1022423
09:00+8св4888100 0.6 1023639
12:00+8св6676100 0.2 1025878
15:00+8св5777100 0.3 1026768
18:00+7св5784100 0.1 1028887
21:00+7св4883100 0.1 1029759
29 сентября, ср
ср2900:00+6св4781100 0.0 1031531
03:00+6св478099 0.0 1031493
06:00+3св48874 0.0 1033181
09:00+6св57685 0.0 1033487
12:00+10св564898 0.0 10331104
15:00+11св55425 0.0 10321278
18:00+8ссв35551 0.0 103284
21:00+6св35643 0.0 103387
30 сентября, чт
чт3000:00+5св3368100 0.0 103449
03:00+4св237052 0.0 103440
06:00+3ссв337553 0.0 103538
09:00+7св34605 0.0 1035317
12:00+11всв34463 0.0 10351119
15:00+12св33445 0.0 10341406
18:00+9св33575 0.0 103427
21:00+7св22645 0.0 103525
1 октября, пт
пт100:00+6всв22685 0.0 103514
03:00+5св22725 0.0 103611
06:00+5св227513 0.0 103611
09:00+9всв22615 0.0 1036240
12:00+12в22485 0.0 10361085
15:00+13всв22445 0.0 10351281
18:00+11всв22555 0.0 103413
21:00+9в22614 0.0 103512
2 октября, сб
сб200:00+8юв11635 0.0 103510
03:00+7в11675 0.0 103510
06:00+6в11715 0.0 103510
09:00+10в22625 0.0 1035213
12:00+14юв23505 0.0 10341072
15:00+15юв334737 0.0 10331466
18:00+13юв345399 0.0 103366
21:00+12юв376491 0.0 1033244